Change the Weather History Date:

Monday, November 21, 2011

  Actual Average Record
Temperature  
Mean Temperature 25 °F 30 °F  
Max Temperature 36 °F 39 °F 70 °F (2012)
Min Temperature 13 °F 20 °F -5 °F (1964)
Degree Days  
Heating Degree Days 40 35  
Month to date heating degree days 595 626  
Since 1 July heating degree days 1219 1375  
Cooling Degree Days 0 0  
Month to date cooling degree days 0 0  
Year to date cooling degree days 767 593  
Moisture  
Dew Point 26 °F    
Average Humidity 91    
Maximum Humidity 100    
Minimum Humidity 82    
Precipitation  
Precipitation 0.00 in 0.06 in 2.40 in (1975)
Month to date precipitation 0.05 1.20  
Year to date precipitation 19.02  
Sea Level Pressure  
Sea Level Pressure 30.24 in    
Wind  
Wind Speed 6 mph (SSE)    
Max Wind Speed 13 mph    
Max Gust Speed 14 mph    
Visibility 5 miles    
Events Fog    
T = Trace of Precipitation, MM = Missing Value Source: NWS Daily Summary

Daily Weather History Graph

Daily Weather History Graph

Search for Another Location

Airport or City:

Trip Planner

Search our weather history database for the weather conditions in past years. The results will help you decide how hot, cold, wet, or windy it might be!

Date:

Astronomy

Nov. 21, 2011 Rise Set
Actual Time 7:19 AM CST 4:49 PM CST
Civil Twilight 6:48 AM CST 5:20 PM CST
Nautical Twilight 6:13 AM CST 5:55 PM CST
Astronomical Twilight 5:39 AM CST 6:29 PM CST
Moon 2:53 AM CST (11/21) 2:17 PM CST (11/21)
Length of Visible Light 10h 32m
Length of Day
9h 29m
Waning Crescent, 17% of the Moon is Illuminated
Nov 21
Waning Crescent
Nov 25
New
Dec 2
First Quarter
Dec 10
Full
Dec 17
Last Quarter

Hourly Weather History & Observations

Time (CST) Temp. Windchill Dew Point Humidity Pressure Visibility Wind Dir Wind Speed Gust Speed Precip Events Conditions
12:52 AM 17.1 °F 8.7 °F 15.1 °F 92% 30.34 in 9.0 mi SSW 5.8 mph - N/A   Mostly Cloudy
1:52 AM 19.0 °F 8.2 °F 18.0 °F 96% 30.30 in 8.0 mi South 9.2 mph - N/A   Mostly Cloudy
2:52 AM 21.0 °F 16.2 °F 19.0 °F 92% 30.30 in 8.0 mi SSE 3.5 mph - N/A   Mostly Cloudy
3:52 AM 21.0 °F - 19.0 °F 92% 30.31 in 8.0 mi Calm Calm - N/A   Clear
4:52 AM 19.0 °F 11.1 °F 17.1 °F 92% 30.31 in 7.0 mi SSE 5.8 mph - N/A   Scattered Clouds
5:52 AM 19.0 °F 13.9 °F 16.0 °F 88% 30.32 in 7.0 mi ESE 3.5 mph - N/A   Mostly Cloudy
6:52 AM 17.1 °F 8.7 °F 14.0 °F 88% 30.31 in 6.0 mi ESE 5.8 mph - N/A   Partly Cloudy
7:52 AM 16.0 °F - 14.0 °F 92% 30.32 in 5.0 mi Calm Calm - N/A   Partly Cloudy
8:05 AM 17.6 °F - 14.0 °F 86% 30.24 in 5.0 mi Calm Calm - N/A   Mostly Cloudy
8:52 AM 19.9 °F - 18.0 °F 92% 30.32 in 5.0 mi Calm Calm - N/A   Overcast
9:12 AM 21.2 °F 14.9 °F 21.2 °F 100% 30.25 in 2.5 mi SE 4.6 mph - N/A   Overcast
9:29 AM 23.0 °F 15.8 °F 21.2 °F 93% 30.25 in 1.5 mi SE 5.8 mph - N/A   Overcast
9:34 AM 24.8 °F 16.9 °F 23.0 °F 93% 30.25 in 0.8 mi SSE 6.9 mph - N/A   Overcast
9:52 AM 25.0 °F 16.3 °F 24.1 °F 96% 30.32 in 0.2 mi SSE 8.1 mph - N/A Fog Light Freezing Fog
10:29 AM 26.6 °F 18.2 °F 26.6 °F 100% 30.25 in 1.2 mi South 8.1 mph - N/A   Overcast
10:52 AM 28.0 °F 18.6 °F 27.0 °F 96% 30.31 in 2.0 mi SSE 10.4 mph - N/A   Overcast
11:15 AM 28.4 °F 21.2 °F 28.4 °F 100% 30.24 in 3.0 mi South 6.9 mph - N/A   Overcast
11:36 AM 30.2 °F 22.6 °F 30.2 °F 100% 30.23 in 4.0 mi South 8.1 mph - N/A   Overcast
11:52 AM 32.0 °F 25.6 °F 30.0 °F 92% 30.29 in 4.0 mi South 6.9 mph - N/A   Overcast
12:06 PM 33.8 °F 27.0 °F 30.2 °F 87% 30.22 in 4.0 mi South 8.1 mph - N/A   Overcast
12:39 PM 35.6 °F 28.6 °F 30.2 °F 81% 30.20 in 5.0 mi South 9.2 mph - N/A   Overcast
1:52 PM 36.0 °F 29.6 °F 30.9 °F 82% 30.22 in 6.0 mi South 8.1 mph - N/A   Haze
2:52 PM 36.0 °F 29.6 °F 30.9 °F 82% 30.20 in 5.0 mi SSE 8.1 mph - N/A   Haze
4:52 PM 36.0 °F 30.3 °F 32.0 °F 86% 30.22 in 4.0 mi SSE 6.9 mph - N/A   Overcast
5:30 PM 35.6 °F 29.9 °F 32.0 °F 87% 30.15 in 5.0 mi SE 6.9 mph - N/A   Overcast
5:52 PM 36.0 °F 29.6 °F 32.0 °F 86% 30.20 in 5.0 mi SE 8.1 mph - N/A   Overcast
6:40 PM 35.6 °F 28.6 °F 33.8 °F 93% 30.15 in 5.0 mi SE 9.2 mph - N/A   Overcast
6:52 PM 36.0 °F 29.6 °F 33.1 °F 89% 30.21 in 5.0 mi SE 8.1 mph - N/A   Overcast
7:25 PM 35.6 °F 29.9 °F 33.8 °F 93% 30.15 in 4.0 mi SE 6.9 mph - N/A   Overcast
7:52 PM 35.1 °F 29.3 °F 33.1 °F 92% 30.21 in 4.0 mi SE 6.9 mph - N/A   Overcast
8:52 PM 35.1 °F 31.0 °F 33.1 °F 92% 30.17 in 4.0 mi SE 4.6 mph - N/A   Overcast
9:23 PM 35.6 °F 29.2 °F 33.8 °F 93% 30.12 in 5.0 mi SE 8.1 mph - N/A   Overcast
9:52 PM 36.0 °F 31.1 °F 33.1 °F 89% 30.19 in 6.0 mi SE 5.8 mph - N/A   Overcast
10:52 PM 36.0 °F 30.3 °F 33.1 °F 89% 30.19 in 6.0 mi SE 6.9 mph - N/A   Overcast
11:52 PM 36.0 °F 29.6 °F 33.1 °F 89% 30.19 in 6.0 mi SSE 8.1 mph - N/A   Overcast